Regional Weather Roundup
Issued by NWS

Home | Current Version | Previous Version | Graphics & Text | Print | Product List | Glossary On
Versions: 1 2 3 4 5 6 7 8 9 10 11 12 13 14 15 16 17 18 19 20 21 22 23 24 25 26 27 28 29 30 31 32 33 34 35 36 37 38 39 40 41 42 43 44 45 46 47 48 49 50
000
ASUS43 KFSD 191910
RWRSD

WEATHER ROUNDUP FOR SOUTH DAKOTA
NATIONAL WEATHER SERVICE SIOUX FALLS SD
100 PM CST FRI DEC 19 2014

NOTE: "FAIR" INDICATES FEW OR NO CLOUDS BELOW 12,000 FEET WITH NO
SIGNIFICANT WEATHER AND/OR OBSTRUCTIONS TO VISIBILITY.


SDZ001>005-009-010-012>017-192000-
NORTHWEST AND NORTH CENTRAL SOUTH DAKOTA

CITY           SKY/WX    TMP DP  RH WIND       PRES   REMARKS
BUFFALO          N/A     40  23  50 W12       29.85F
FAITH            N/A     36  28  73 W7        29.94F
MOBRIDGE       MOSUNNY   32  27  81 S7        29.93F WCI  26
$$

SDZ012>016-024>037-041>051-057-063-072>074-192000-
SOUTHWEST AND SOUTH CENTRAL SOUTH DAKOTA

CITY           SKY/WX    TMP DP  RH WIND       PRES   REMARKS
RAPID CTY ARPT MOSUNNY   50  20  30 CALM      29.94F
PIERRE         CLOUDY    26  23  88 CALM      29.97F
CUSTER         SUNNY     39  16  39 VRB6      29.93F
ELLSWORTH AFB  MOSUNNY   48  22  36 E2        29.94F
PHILIP         MOSUNNY   47  25  42 VRB6      29.96F
PINE RIDGE     SUNNY     38  21  50 W14       29.97F
SPEARFISH      FAIR      43  25  49 NW3       29.95S
WINNER         FAIR      34  24  67 S7        29.98F WCI  28
$$

SDZ004>011-016>023-039-040-192000-
NORTHEAST SOUTH DAKOTA

CITY           SKY/WX    TMP DP  RH WIND       PRES   REMARKS
ABERDEEN       CLOUDY    31  27  85 S17       30.01F FOG     WCI  19
WATERTOWN      CLOUDY    27  26  96 S13       30.03F FOG     WCI  16
SISSETON         N/A     31  28  89 S13       30.03  WCI  21
$$

SDZ017-020-022-023-036>040-048>070-192000-
SOUTHEAST SOUTH DAKOTA

CITY           SKY/WX    TMP DP  RH WIND       PRES   REMARKS
SIOUX FALLS    CLOUDY    30  27  88 S16       30.11F WCI  19
HURON          CLOUDY    29  27  92 MISG      30.05F FOG
CHAMBERLAIN    CLOUDY    26  21  82 SE7       30.00F WCI  18
MITCHELL       CLOUDY    31  28  89 S16       30.07F FOG     WCI  20
YANKTON        CLOUDY    30  27  86 S13       30.12F WCI  20
$$

ABBREVIATIONS USED IN REMARKS
   TC - TEMPERATURE IN CELSIUS
  WCI - WIND CHILL INDEX
   HX - HEAT INDEX
  VSB - VISIBILITY



USA.gov is the U.S. government's official web portal to all federal, state and local government web resources and services.